Pittsfield, MA

9:54 AM EDT on August 30, 2016 (GMT -0400)
Pittsfield Municipal

Weather History for KPSF - January, 2014

Change the Weather History Date:

Sunday, January 19, 2014

  Actual Average Record
Temperature  
Mean Temperature 24 °F 20 °F  
Max Temperature 28 °F 29 °F 55 °F (1949)
Min Temperature 19 °F 11 °F -16 °F (1938)
Degree Days  
Heating Degree Days 41 45  
Month to date heating degree days 789 848  
Since 1 July heating degree days 3637 3686  
Cooling Degree Days 0 0  
Month to date cooling degree days 0 0  
Year to date cooling degree days 0 0  
Moisture  
Dew Point 17 °F    
Average Humidity 74    
Maximum Humidity 84    
Minimum Humidity 63    
Precipitation  
Precipitation T in 0.08 in 0.73 in (1926)
Month to date precipitation 3.26 1.93  
Year to date precipitation 3.26 1.93  
Sea Level Pressure  
Sea Level Pressure 29.62 in    
Wind  
Wind Speed 9 mph (SW)    
Max Wind Speed 17 mph    
Max Gust Speed 25 mph    
Visibility 6 miles    
Events Fog , Snow    
T = Trace of Precipitation, MM = Missing Value Source: NWS Daily Summary

Daily Weather History Graph

Daily Weather History Graph

Search for Another Location

Airport or City:

Trip Planner

Search our weather history database for the weather conditions in past years. The results will help you decide how hot, cold, wet, or windy it might be!

Date:

Astronomy

Jan. 19, 2014 Rise Set
Actual Time 7:17 AM EST 4:50 PM EST
Civil Twilight 6:46 AM EST 5:21 PM EST
Nautical Twilight 6:12 AM EST 5:55 PM EST
Astronomical Twilight 5:38 AM EST 6:29 PM EST
Moon 8:31 PM EST (1/19) 8:41 AM EST (1/19)
Length of Visible Light 10h 34m
Length of Day
9h 32m
Waning Gibbous, 89% of the Moon is Illuminated
Jan 19
Waning Gibbous
Jan 24
Last Quarter
Jan 30
New
Feb 6
First Quarter
Feb 14
Full

Hourly Weather History & Observations

Time (EST) Temp. Windchill Dew Point Humidity Pressure Visibility Wind Dir Wind Speed Gust Speed Precip Events Conditions
12:54 AM 21.9 °F 13.4 °F 17.1 °F 82% 29.75 in 9.0 mi WNW 6.9 mph - N/A   Overcast
1:54 AM 21.9 °F 17.2 °F 18.0 °F 85% 29.75 in 8.0 mi Variable 3.5 mph - N/A   Overcast
2:54 AM 21.0 °F 13.4 °F 18.0 °F 88% 29.74 in 7.0 mi West 5.8 mph - N/A   Overcast
3:54 AM 21.0 °F 13.4 °F 17.1 °F 85% 29.73 in 8.0 mi Variable 5.8 mph - N/A   Overcast
4:54 AM 21.0 °F 13.4 °F 17.1 °F 85% 29.73 in 8.0 mi West 5.8 mph - N/A   Overcast
5:54 AM 21.0 °F 14.6 °F 17.1 °F 85% 29.72 in 8.0 mi West 4.6 mph - N/A   Overcast
6:54 AM 21.0 °F 13.4 °F 17.1 °F 85% 29.71 in 4.0 mi WSW 5.8 mph - 0.00 in Snow Light Snow
7:01 AM 21.2 °F 13.6 °F 17.6 °F 86% 29.65 in 1.8 mi West 5.8 mph - 0.00 in Snow Light Snow
7:16 AM 19.4 °F 12.8 °F 17.6 °F 93% 29.64 in 1.5 mi West 4.6 mph - 0.00 in Snow Light Snow
7:24 AM 19.4 °F 12.8 °F 17.6 °F 93% 29.64 in 1.8 mi West 4.6 mph - 0.00 in Snow Light Snow
7:39 AM 19.4 °F 12.8 °F 15.8 °F 86% 29.64 in 2.5 mi WSW 4.6 mph - 0.00 in Snow Light Snow
7:54 AM 19.0 °F 13.9 °F 16.0 °F 88% 29.69 in 3.0 mi West 3.5 mph - 0.00 in   Mostly Cloudy
8:47 AM 21.2 °F 11.7 °F 17.6 °F 86% 29.64 in 4.0 mi WSW 8.1 mph - N/A   Overcast
8:54 AM 21.0 °F 12.4 °F 17.1 °F 85% 29.70 in 3.0 mi WSW 6.9 mph - N/A   Overcast
9:20 AM 21.2 °F 13.6 °F 17.6 °F 86% 29.63 in 1.8 mi WSW 5.8 mph - 0.00 in Snow Light Snow
9:34 AM 21.2 °F 16.4 °F 17.6 °F 86% 29.63 in 0.5 mi SW 3.5 mph - 0.00 in Fog , Snow Light Snow
9:54 AM 21.9 °F 11.7 °F 18.0 °F 85% 29.68 in 0.5 mi SSW 9.2 mph - 0.00 in Fog , Snow Light Snow
10:15 AM 21.2 °F 9.5 °F 17.6 °F 86% 29.62 in 1.2 mi SSW 11.5 mph 18.4 mph 0.00 in Snow Light Snow
10:29 AM 21.2 °F 10.1 °F 17.6 °F 86% 29.61 in 2.0 mi SW 10.4 mph 18.4 mph 0.00 in Snow Light Snow
10:38 AM 21.2 °F 10.1 °F 17.6 °F 86% 29.60 in 5.0 mi SSW 10.4 mph 17.3 mph 0.00 in   Haze
10:54 AM 21.9 °F 10.4 °F 17.1 °F 82% 29.66 in 5.0 mi SW 11.5 mph - 0.00 in   Haze
11:26 AM 23.0 °F 13.1 °F 17.6 °F 80% 29.58 in 10.0 mi SW 9.2 mph - N/A   Mostly Cloudy
11:33 AM 23.0 °F 10.6 °F 17.6 °F 80% 29.58 in 10.0 mi SW 13.8 mph 19.6 mph N/A   Scattered Clouds
11:54 AM 24.1 °F 13.1 °F 16.0 °F 71% 29.60 in 10.0 mi SSW 11.5 mph - N/A   Mostly Cloudy
12:54 PM 26.1 °F 15.6 °F 16.0 °F 66% 29.55 in 10.0 mi SSW 11.5 mph - N/A   Partly Cloudy
1:54 PM 26.1 °F 15.0 °F 15.1 °F 63% 29.54 in 10.0 mi SSW 12.7 mph 21.9 mph N/A   Overcast
2:54 PM 26.1 °F 15.6 °F 16.0 °F 66% 29.53 in 10.0 mi SSW 11.5 mph - N/A   Mostly Cloudy
3:54 PM 26.1 °F 15.6 °F 17.1 °F 69% 29.53 in 10.0 mi SSW 11.5 mph 20.7 mph N/A   Clear
4:54 PM 26.1 °F 16.2 °F 17.1 °F 69% 29.53 in 10.0 mi SSW 10.4 mph 18.4 mph N/A   Overcast
5:54 PM 26.1 °F 16.2 °F 16.0 °F 66% 29.54 in 10.0 mi SW 10.4 mph 16.1 mph N/A   Overcast
6:54 PM 26.1 °F 14.5 °F 15.1 °F 63% 29.55 in 10.0 mi WSW 13.8 mph 23.0 mph N/A   Overcast
7:54 PM 26.1 °F 17.6 °F 16.0 °F 66% 29.56 in 10.0 mi SW 8.1 mph 17.3 mph N/A   Overcast
8:54 PM 27.0 °F 17.3 °F 17.1 °F 66% 29.55 in 10.0 mi SW 10.4 mph 19.6 mph N/A   Overcast
9:54 PM 27.0 °F 18.7 °F 18.0 °F 69% 29.54 in 10.0 mi SW 8.1 mph - N/A   Overcast
10:54 PM 27.0 °F 16.7 °F 18.0 °F 69% 29.54 in 10.0 mi SW 11.5 mph - N/A   Overcast
11:54 PM 28.0 °F 17.5 °F 19.0 °F 69% 29.53 in 10.0 mi SW 12.7 mph - N/A   Overcast